1 Anzeige mit Außen Messungen

Zurück zum Überblick

Zeitpunkt Temperatur Innen Luftfeuchte Innen Luftqualität Temperatur Außen
22.05.2019 15:57:19 23,5 C 47,0% 700 ppm 14,5 C
22.05.2019 15:51:22 23,5 C 47,0% 700 ppm 14,7 C
22.05.2019 15:45:20 23,5 C 47,0% 700 ppm 14,5 C
22.05.2019 15:39:23 23,5 C 47,0% 700 ppm 13,9 C
22.05.2019 15:33:20 23,5 C 47,0% 700 ppm 13,9 C
22.05.2019 15:27:19 23,5 C 47,0% 700 ppm 14,4 C
22.05.2019 15:21:23 23,5 C 47,0% 700 ppm 14,7 C
22.05.2019 15:15:21 23,5 C 47,0% 700 ppm 15,0 C
22.05.2019 15:09:18 23,5 C 47,0% 700 ppm 14,0 C
22.05.2019 15:03:22 23,5 C 47,0% 750 ppm 13,4 C
22.05.2019 14:57:18 23,5 C 47,0% 700 ppm 13,4 C
22.05.2019 14:51:17 23,5 C 47,0% 700 ppm 13,4 C
22.05.2019 14:45:19 23,5 C 47,0% 700 ppm 13,4 C
22.05.2019 14:39:19 23,5 C 47,0% 700 ppm 13,5 C
22.05.2019 14:33:16 23,5 C 47,0% 700 ppm 13,6 C
22.05.2019 14:27:21 23,5 C 47,0% 650 ppm 13,7 C
22.05.2019 14:21:17 23,5 C 47,0% 650 ppm 13,6 C
22.05.2019 14:15:17 23,5 C 47,0% 650 ppm 13,4 C
22.05.2019 14:09:20 23,5 C 47,0% 650 ppm 13,3 C
22.05.2019 14:03:16 23,5 C 47,0% 650 ppm 13,5 C
22.05.2019 13:57:15 23,5 C 47,0% 650 ppm 13,3 C
22.05.2019 13:51:17 23,5 C 47,0% 650 ppm 13,0 C
22.05.2019 13:45:20 23,5 C 47,0% 650 ppm 13,2 C
22.05.2019 13:39:16 23,5 C 47,0% 650 ppm 13,2 C
22.05.2019 13:33:19 23,5 C 47,0% 650 ppm 13,3 C
22.05.2019 13:27:18 23,5 C 47,0% 600 ppm 13,2 C
22.05.2019 13:21:15 23,5 C 47,0% 600 ppm 13,4 C
22.05.2019 13:15:18 23,5 C 47,0% 600 ppm 13,3 C
22.05.2019 13:09:14 23,5 C 47,0% 600 ppm 13,5 C
22.05.2019 13:03:14 23,5 C 47,0% 600 ppm 13,5 C
22.05.2019 12:57:15 23,5 C 47,0% 600 ppm 13,6 C
22.05.2019 12:51:14 23,0 C 47,0% 600 ppm 13,5 C
22.05.2019 12:39:17 23,0 C 47,0% 550 ppm 13,7 C
22.05.2019 12:38:06 23,0 C 47,0% 100 ppm 13,5 C
22.05.2019 12:33:18 23,0 C 47,0% 500 ppm 13,8 C
22.05.2019 12:27:18 23,0 C 47,0% 500 ppm 13,7 C
22.05.2019 12:21:14 23,0 C 47,0% 500 ppm 13,4 C
22.05.2019 12:15:17 23,0 C 47,0% 500 ppm 13,4 C
22.05.2019 12:09:17 23,0 C 48,0% 500 ppm 13,4 C
22.05.2019 12:03:13 23,0 C 48,0% 500 ppm 13,2 C
22.05.2019 11:57:18 23,0 C 48,0% 500 ppm 13,4 C
22.05.2019 11:51:14 23,0 C 48,0% 500 ppm 13,5 C
22.05.2019 11:45:15 23,0 C 48,0% 500 ppm 13,6 C
22.05.2019 11:39:17 23,0 C 48,0% 500 ppm 13,6 C
22.05.2019 11:33:16 23,0 C 48,0% 500 ppm 13,7 C
22.05.2019 11:27:15 23,0 C 48,0% 500 ppm 13,9 C
22.05.2019 11:21:15 23,0 C 48,0% 500 ppm 13,8 C
22.05.2019 11:15:15 23,0 C 48,0% 450 ppm 13,7 C
22.05.2019 11:09:16 23,0 C 48,0% 450 ppm 13,8 C
22.05.2019 11:03:17 23,0 C 48,0% 450 ppm 14,0 C
22.05.2019 10:57:14 23,0 C 48,0% 450 ppm 14,5 C
22.05.2019 10:52:38 23,0 C 48,0% 100 ppm 14,8 C
22.05.2019 10:45:13 23,0 C 48,0% 450 ppm 13,7 C
22.05.2019 10:39:16 23,0 C 48,0% 500 ppm 13,2 C
22.05.2019 10:33:19 23,0 C 48,0% 450 ppm 13,2 C
22.05.2019 10:27:18 23,0 C 48,0% 450 ppm 13,1 C
22.05.2019 10:21:13 23,0 C 48,0% 450 ppm 13,4 C
22.05.2019 10:15:14 23,0 C 48,0% 500 ppm 13,7 C
22.05.2019 10:09:12 23,0 C 48,0% 500 ppm 14,0 C
22.05.2019 10:03:17 23,0 C 48,0% 500 ppm 14,5 C
22.05.2019 09:57:13 23,0 C 48,0% 500 ppm 14,5 C
22.05.2019 09:51:17 23,0 C 48,0% 450 ppm 13,9 C
22.05.2019 09:45:12 23,0 C 48,0% 450 ppm 13,8 C
22.05.2019 09:39:17 23,0 C 48,0% 450 ppm 13,4 C
22.05.2019 09:33:16 23,0 C 48,0% 500 ppm 13,5 C
22.05.2019 09:27:13 23,0 C 48,0% 500 ppm 13,6 C
22.05.2019 09:21:14 23,0 C 48,0% 500 ppm 13,8 C
22.05.2019 09:15:16 23,0 C 48,0% 500 ppm 14,2 C
22.05.2019 09:09:17 23,0 C 48,0% 500 ppm 14,1 C
22.05.2019 09:03:17 23,0 C 48,0% 500 ppm 13,4 C
22.05.2019 08:57:14 23,0 C 48,0% 500 ppm 13,2 C
22.05.2019 08:51:12 23,0 C 48,0% 500 ppm 13,0 C
22.05.2019 08:45:15 23,0 C 48,0% 500 ppm 12,5 C
22.05.2019 08:39:15 23,0 C 48,0% 500 ppm 12,4 C
22.05.2019 08:33:11 23,0 C 48,0% 500 ppm 12,3 C
22.05.2019 08:27:12 23,0 C 48,0% 500 ppm 12,3 C
22.05.2019 08:21:14 23,0 C 48,0% 450 ppm 12,3 C
22.05.2019 08:15:16 23,0 C 48,0% 450 ppm 12,1 C
22.05.2019 08:10:40 23,0 C 48,0% 100 ppm 12,0 C
22.05.2019 08:03:16 22,5 C 48,0% 450 ppm 12,1 C
22.05.2019 07:57:12 22,5 C 48,0% 450 ppm 12,1 C
22.05.2019 07:51:10 22,5 C 48,0% 450 ppm 12,1 C
22.05.2019 07:45:12 22,5 C 48,0% 450 ppm 12,0 C
22.05.2019 07:39:11 22,5 C 48,0% 450 ppm 12,0 C
22.05.2019 07:33:10 22,5 C 48,0% 450 ppm 12,0 C
22.05.2019 07:27:16 22,5 C 48,0% 450 ppm 12,0 C
22.05.2019 07:21:11 22,5 C 48,0% 450 ppm 11,8 C
22.05.2019 07:15:13 22,5 C 48,0% 450 ppm 11,8 C
22.05.2019 07:09:11 22,5 C 48,0% 450 ppm 11,7 C
22.05.2019 07:03:11 22,5 C 48,0% 450 ppm 11,7 C
22.05.2019 06:57:13 22,5 C 48,0% 450 ppm 11,7 C
22.05.2019 06:51:13 22,5 C 48,0% 450 ppm 11,8 C
22.05.2019 06:45:16 22,5 C 48,0% 450 ppm 11,8 C
22.05.2019 06:39:10 22,5 C 48,0% 450 ppm 11,8 C
22.05.2019 06:33:10 22,5 C 48,0% 450 ppm 11,8 C
22.05.2019 06:27:11 22,5 C 48,0% 450 ppm 11,8 C
22.05.2019 06:21:10 22,5 C 48,0% 450 ppm 11,8 C
22.05.2019 06:15:11 22,5 C 48,0% 450 ppm 11,7 C
22.05.2019 06:09:10 22,5 C 48,0% 450 ppm 11,8 C
22.05.2019 06:03:12 22,5 C 48,0% 450 ppm 11,7 C
22.05.2019 05:57:09 22,5 C 48,0% 450 ppm 11,7 C
22.05.2019 05:51:11 22,5 C 48,0% 450 ppm 11,7 C
22.05.2019 05:45:10 22,5 C 48,0% 450 ppm 11,7 C
22.05.2019 05:40:34 22,5 C 48,0% 100 ppm 11,7 C
22.05.2019 05:33:11 22,5 C 48,0% 450 ppm 11,7 C
22.05.2019 05:28:35 22,5 C 48,0% 100 ppm 11,8 C
22.05.2019 05:21:10 22,5 C 48,0% 450 ppm 11,8 C
22.05.2019 05:15:08 22,5 C 48,0% 450 ppm 11,8 C
22.05.2019 05:09:09 22,5 C 48,0% 450 ppm 11,9 C
22.05.2019 05:03:11 22,5 C 48,0% 450 ppm 11,9 C
22.05.2019 04:57:06 22,5 C 48,0% 450 ppm 11,9 C
22.05.2019 04:51:08 22,5 C 48,0% 450 ppm 12,0 C
22.05.2019 04:45:07 22,5 C 48,0% 450 ppm 12,0 C
22.05.2019 04:39:09 22,5 C 48,0% 450 ppm 12,0 C
22.05.2019 04:33:08 22,5 C 48,0% 450 ppm 12,0 C
22.05.2019 04:27:06 22,5 C 48,0% 450 ppm 12,0 C
22.05.2019 04:21:11 22,5 C 48,0% 450 ppm 12,0 C
22.05.2019 04:15:07 22,5 C 48,0% 450 ppm 12,0 C
22.05.2019 04:09:07 22,5 C 48,0% 450 ppm 12,0 C
22.05.2019 04:03:07 22,5 C 48,0% 450 ppm 12,0 C
22.05.2019 03:57:08 22,5 C 48,0% 450 ppm 12,1 C
22.05.2019 03:51:09 22,5 C 48,0% 450 ppm 12,1 C
22.05.2019 03:45:09 22,5 C 48,0% 450 ppm 12,2 C
22.05.2019 03:39:10 22,5 C 48,0% 450 ppm 12,2 C
22.05.2019 03:33:11 22,5 C 49,0% 450 ppm 12,2 C
22.05.2019 03:27:11 22,5 C 49,0% 450 ppm 12,2 C
22.05.2019 03:21:07 22,5 C 49,0% 450 ppm 12,2 C
22.05.2019 03:15:12 23,0 C 49,0% 450 ppm 12,3 C
22.05.2019 03:09:12 23,0 C 49,0% 450 ppm 12,4 C
22.05.2019 03:03:13 23,0 C 49,0% 450 ppm 12,4 C
22.05.2019 02:57:07 23,0 C 49,0% 450 ppm 12,4 C
22.05.2019 02:51:09 23,0 C 49,0% 450 ppm 12,4 C
22.05.2019 02:45:09 23,0 C 49,0% 450 ppm 12,5 C
22.05.2019 02:39:08 23,0 C 49,0% 450 ppm 12,5 C
22.05.2019 02:33:09 23,0 C 49,0% 450 ppm 12,5 C
22.05.2019 02:27:07 23,0 C 49,0% 450 ppm 12,5 C
22.05.2019 02:21:10 23,0 C 49,0% 450 ppm 12,5 C
22.05.2019 02:15:10 23,0 C 49,0% 450 ppm 12,6 C
22.05.2019 02:09:12 23,0 C 49,0% 450 ppm 12,6 C
22.05.2019 02:03:07 23,0 C 49,0% 450 ppm 12,6 C
22.05.2019 01:57:11 23,0 C 49,0% 450 ppm 12,7 C
22.05.2019 01:51:10 23,0 C 49,0% 450 ppm 12,7 C
22.05.2019 01:45:06 23,0 C 49,0% 450 ppm 12,8 C
22.05.2019 01:39:07 23,0 C 49,0% 450 ppm 12,8 C
22.05.2019 01:33:09 23,0 C 49,0% 450 ppm 12,8 C
22.05.2019 01:27:07 23,0 C 49,0% 450 ppm 12,8 C
22.05.2019 01:21:05 23,0 C 49,0% 450 ppm 12,8 C
22.05.2019 01:15:04 23,0 C 49,0% 450 ppm 12,9 C
22.05.2019 01:09:05 23,0 C 49,0% 450 ppm 12,8 C
22.05.2019 01:03:05 23,0 C 49,0% 450 ppm 12,9 C
22.05.2019 00:57:09 23,0 C 49,0% 450 ppm 12,9 C
22.05.2019 00:51:05 23,0 C 49,0% 450 ppm 12,9 C
22.05.2019 00:45:07 23,0 C 49,0% 450 ppm 12,9 C
22.05.2019 00:39:05 23,0 C 49,0% 450 ppm 12,8 C
22.05.2019 00:33:07 23,0 C 49,0% 450 ppm 12,9 C
22.05.2019 00:27:08 23,0 C 49,0% 450 ppm 12,9 C
22.05.2019 00:21:06 23,0 C 49,0% 450 ppm 12,9 C
22.05.2019 00:15:04 23,0 C 49,0% 450 ppm 12,9 C
22.05.2019 00:09:03 23,0 C 49,0% 450 ppm 12,9 C
22.05.2019 00:03:03 23,0 C 49,0% 450 ppm 12,9 C